AAY12 KFAT-KLAS

Flight info

Callsign AAY12
Flight time 0h 53m
Altitude 31000
Route YOSE3 NTELL CABAB Q174 FLCHR COKTL4
Aircraft A320/M-SDE3FGHIRWY/LB1

Departure

Time 2026-04-16 23:43
Airport Fresno Yosemite International Airport (KFAT)

Arrival

Time 2026-04-17 00:37
Airport Harry Reid International Airport (KLAS)
Time Latitude Longitude Altitude Speed Heading
2026-04-16 23:06 36.77189 -119.71899 331 ft 0 kts 124°
2026-04-16 23:29 36.77197 -119.71912 331 ft 2 kts 123°
2026-04-16 23:29 36.77204 -119.71927 331 ft 0 kts 124°
2026-04-16 23:29 36.77210 -119.71938 331 ft 2 kts 106°
2026-04-16 23:29 36.77212 -119.71957 331 ft 2 kts 83°
2026-04-16 23:30 36.77208 -119.71975 331 ft 2 kts 60°
2026-04-16 23:30 36.77199 -119.71989 331 ft 0 kts 38°
2026-04-16 23:30 36.77193 -119.71993 331 ft 1 kts 33°
2026-04-16 23:30 36.77192 -119.71994 331 ft 0 kts 34°
2026-04-16 23:36 36.77194 -119.71993 331 ft 0 kts 35°
2026-04-16 23:36 36.77208 -119.71980 331 ft 3 kts 35°
2026-04-16 23:37 36.77227 -119.71963 331 ft 3 kts 34°
2026-04-16 23:37 36.77246 -119.71947 332 ft 3 kts 36°
2026-04-16 23:37 36.77274 -119.71916 332 ft 6 kts 45°
2026-04-16 23:37 36.77304 -119.71856 333 ft 10 kts 64°
2026-04-16 23:38 36.77321 -119.71765 333 ft 9 kts 144°
2026-04-16 23:38 36.77274 -119.71690 333 ft 13 kts 122°
2026-04-16 23:38 36.77211 -119.71575 333 ft 17 kts 125°
2026-04-16 23:38 36.77140 -119.71452 333 ft 17 kts 125°
2026-04-16 23:39 36.77066 -119.71321 332 ft 18 kts 125°
2026-04-16 23:39 36.76992 -119.71191 333 ft 18 kts 125°
2026-04-16 23:39 36.76920 -119.71066 333 ft 17 kts 125°
2026-04-16 23:39 36.76847 -119.70938 333 ft 17 kts 125°
2026-04-16 23:40 36.76776 -119.70812 333 ft 17 kts 119°
2026-04-16 23:40 36.76761 -119.70659 333 ft 17 kts 90°
2026-04-16 23:40 36.76763 -119.70506 335 ft 16 kts 76°
2026-04-16 23:40 36.76819 -119.70429 337 ft 2 kts 34°
2026-04-16 23:41 36.76820 -119.70428 337 ft 0 kts 34°
2026-04-16 23:42 36.76841 -119.70410 337 ft 6 kts 31°
2026-04-16 23:42 36.76901 -119.70398 337 ft 10 kts 339°
2026-04-16 23:42 36.76953 -119.70477 337 ft 15 kts 305°
2026-04-16 23:43 36.77158 -119.70834 334 ft 84 kts 307°
2026-04-16 23:43 36.77613 -119.71630 337 ft 141 kts 305°
2026-04-16 23:43 36.78228 -119.72720 670 ft 158 kts 305°
2026-04-16 23:43 36.78875 -119.73912 1055 ft 176 kts 304°
2026-04-16 23:44 36.79591 -119.75262 1386 ft 200 kts 304°
2026-04-16 23:44 36.80412 -119.76820 1629 ft 230 kts 304°
2026-04-16 23:44 36.81352 -119.78591 1937 ft 258 kts 304°
2026-04-16 23:44 36.82341 -119.80451 2213 ft 249 kts 304°
2026-04-16 23:45 36.83298 -119.82248 2508 ft 247 kts 304°
2026-04-16 23:45 36.84236 -119.84035 2798 ft 247 kts 304°
2026-04-16 23:45 36.85174 -119.85846 3091 ft 249 kts 304°
2026-04-16 23:45 36.86111 -119.87669 3382 ft 250 kts 304°
2026-04-16 23:46 36.87053 -119.89503 3675 ft 252 kts 304°
2026-04-16 23:46 36.88000 -119.91321 3963 ft 253 kts 308°
2026-04-16 23:46 36.89321 -119.92778 4260 ft 255 kts 335°
2026-04-16 23:46 36.91046 -119.93188 4928 ft 260 kts
2026-04-16 23:47 36.92823 -119.92845 5744 ft 261 kts 11°
2026-04-16 23:47 36.94604 -119.92352 6457 ft 265 kts 12°
2026-04-16 23:47 36.96407 -119.91830 7201 ft 268 kts 12°
2026-04-16 23:47 36.98208 -119.91296 7915 ft 270 kts 12°
2026-04-16 23:48 37.00032 -119.90748 8628 ft 272 kts 12°
2026-04-16 23:48 37.01877 -119.90188 9344 ft 274 kts 12°
2026-04-16 23:48 37.03726 -119.89619 10049 ft 276 kts 12°
2026-04-16 23:48 37.05604 -119.89028 10565 ft 285 kts 12°
2026-04-16 23:49 37.07592 -119.88392 10854 ft 301 kts 12°
2026-04-16 23:49 37.09665 -119.87724 11126 ft 317 kts 12°
2026-04-16 23:49 37.11855 -119.87014 11550 ft 327 kts 12°
2026-04-16 23:49 37.14025 -119.86298 12190 ft 329 kts 12°
2026-04-16 23:50 37.16272 -119.85529 12875 ft 331 kts 12°
2026-04-16 23:50 37.18512 -119.84729 13484 ft 333 kts 12°
2026-04-16 23:50 37.20745 -119.83906 14088 ft 336 kts 12°
2026-04-16 23:50 37.22993 -119.83066 14655 ft 339 kts 12°
2026-04-16 23:51 37.25236 -119.82201 15189 ft 342 kts 12°
2026-04-16 23:51 37.27525 -119.81300 15724 ft 344 kts 12°
2026-04-16 23:51 37.29803 -119.80394 16282 ft 347 kts 12°
2026-04-16 23:51 37.32119 -119.79459 16781 ft 350 kts 12°
2026-04-16 23:52 37.34439 -119.78505 17286 ft 352 kts 12°
2026-04-16 23:52 37.36780 -119.77526 17796 ft 355 kts 12°
2026-04-16 23:52 37.39109 -119.76533 18256 ft 359 kts 12°
2026-04-16 23:52 37.41476 -119.75518 18766 ft 360 kts 12°
2026-04-16 23:53 37.43858 -119.74492 19243 ft 362 kts 12°
2026-04-16 23:53 37.46251 -119.73457 19705 ft 364 kts 12°
2026-04-16 23:53 37.48652 -119.72409 20026 ft 366 kts 12°
2026-04-16 23:53 37.51041 -119.71358 20068 ft 367 kts 12°
2026-04-16 23:54 37.53478 -119.70284 20073 ft 366 kts 12°
2026-04-16 23:54 37.55872 -119.69229 20075 ft 365 kts 12°
2026-04-16 23:54 37.58251 -119.67986 20067 ft 375 kts 23°
2026-04-16 23:54 37.60302 -119.65866 20074 ft 391 kts 41°
2026-04-16 23:55 37.61760 -119.62950 20065 ft 408 kts 62°
2026-04-16 23:55 37.62371 -119.59352 20167 ft 428 kts 83°
2026-04-16 23:55 37.61925 -119.55622 20578 ft 440 kts 108°
2026-04-16 23:55 37.60644 -119.52162 21135 ft 440 kts 115°
2026-04-16 23:56 37.59207 -119.48727 21546 ft 443 kts 116°
2026-04-16 23:56 37.57762 -119.45300 21923 ft 446 kts 116°
2026-04-16 23:56 37.56311 -119.41817 22306 ft 449 kts 115°
2026-04-16 23:56 37.54878 -119.38344 22684 ft 452 kts 116°
2026-04-16 23:57 37.53430 -119.34807 23050 ft 455 kts 116°
2026-04-16 23:57 37.51979 -119.31258 23399 ft 457 kts 116°
2026-04-16 23:57 37.50541 -119.27721 23728 ft 460 kts 116°
2026-04-16 23:57 37.49072 -119.24126 24127 ft 462 kts 115°
2026-04-16 23:58 37.47608 -119.20536 24479 ft 464 kts 116°
2026-04-16 23:58 37.46143 -119.16944 24832 ft 466 kts 116°
2026-04-16 23:58 37.44654 -119.13300 25162 ft 468 kts 116°
2026-04-16 23:58 37.43165 -119.09661 25500 ft 470 kts 116°
2026-04-16 23:59 37.41665 -119.05994 25789 ft 473 kts 116°
2026-04-16 23:59 37.40146 -119.02290 26110 ft 475 kts 115°
2026-04-16 23:59 37.38650 -118.98657 26471 ft 476 kts 116°
2026-04-16 23:59 37.37123 -118.94940 26779 ft 478 kts 115°
2026-04-17 00:00 37.35595 -118.91225 27085 ft 479 kts 115°
2026-04-17 00:00 37.34059 -118.87495 27354 ft 482 kts 116°
2026-04-17 00:00 37.32521 -118.83762 27620 ft 484 kts 116°
2026-04-17 00:00 37.30996 -118.80067 27921 ft 485 kts 115°
2026-04-17 00:01 37.29457 -118.76287 28215 ft 485 kts 112°
2026-04-17 00:01 37.28350 -118.72292 28456 ft 482 kts 99°
2026-04-17 00:01 37.27927 -118.68159 28759 ft 475 kts 86°
2026-04-17 00:01 37.28093 -118.64101 29036 ft 471 kts 79°
2026-04-17 00:02 37.28445 -118.59996 29251 ft 473 kts 78°
2026-04-17 00:02 37.28816 -118.55924 29474 ft 475 kts 78°
2026-04-17 00:02 37.29179 -118.51765 29688 ft 478 kts 78°
2026-04-17 00:02 37.29524 -118.47607 29890 ft 481 kts 78°
2026-04-17 00:03 37.29853 -118.43480 30079 ft 483 kts 79°
2026-04-17 00:03 37.30180 -118.39272 30290 ft 485 kts 79°
2026-04-17 00:03 37.30500 -118.35022 30504 ft 487 kts 79°
2026-04-17 00:03 37.30817 -118.30791 30682 ft 488 kts 79°
2026-04-17 00:04 37.31128 -118.26599 30860 ft 490 kts 79°
2026-04-17 00:04 37.31446 -118.22334 31023 ft 490 kts 79°
2026-04-17 00:04 37.31760 -118.18066 31037 ft 491 kts 79°
2026-04-17 00:05 37.32387 -118.09537 31035 ft 493 kts 79°
2026-04-17 00:05 37.33005 -118.00997 31039 ft 494 kts 79°
2026-04-17 00:06 37.33617 -117.92453 31032 ft 495 kts 79°
2026-04-17 00:06 37.34226 -117.83870 31026 ft 493 kts 79°
2026-04-17 00:07 37.34822 -117.75344 31023 ft 493 kts 80°
2026-04-17 00:07 37.35419 -117.66766 31013 ft 492 kts 79°
2026-04-17 00:08 37.36007 -117.58250 31015 ft 492 kts 80°
2026-04-17 00:08 37.36590 -117.49676 31017 ft 494 kts 80°
2026-04-17 00:09 37.37167 -117.41071 31012 ft 494 kts 80°
2026-04-17 00:09 37.37478 -117.32512 30998 ft 500 kts 91°
2026-04-17 00:09 37.36875 -117.28150 30998 ft 507 kts 104°
2026-04-17 00:10 37.35615 -117.23989 31000 ft 509 kts 116°
2026-04-17 00:10 37.33788 -117.20266 30996 ft 507 kts 128°
2026-04-17 00:10 37.31477 -117.16879 31003 ft 506 kts 133°
2026-04-17 00:11 37.26720 -117.10511 30991 ft 503 kts 134°
2026-04-17 00:11 37.21973 -117.04047 30973 ft 501 kts 133°
2026-04-17 00:12 37.17301 -116.97572 30971 ft 501 kts 133°
2026-04-17 00:12 37.12604 -116.91170 30962 ft 499 kts 137°
2026-04-17 00:13 37.07444 -116.85400 30964 ft 496 kts 144°
2026-04-17 00:13 37.01854 -116.80426 30962 ft 492 kts 148°
2026-04-17 00:14 36.96196 -116.75617 30950 ft 491 kts 148°
2026-04-17 00:14 36.90568 -116.70810 30675 ft 490 kts 148°
2026-04-17 00:14 36.87774 -116.68420 30409 ft 487 kts 148°
2026-04-17 00:15 36.85447 -116.66430 30169 ft 485 kts 149°
2026-04-17 00:15 36.82663 -116.64053 29728 ft 483 kts 148°
2026-04-17 00:15 36.79913 -116.61704 29381 ft 480 kts 148°
2026-04-17 00:15 36.77186 -116.59373 28954 ft 477 kts 148°
2026-04-17 00:16 36.74459 -116.57047 28491 ft 473 kts 149°
2026-04-17 00:16 36.71755 -116.54744 28011 ft 470 kts 149°
2026-04-17 00:16 36.69055 -116.52447 27519 ft 466 kts 149°
2026-04-17 00:16 36.66478 -116.50119 26990 ft 464 kts 144°
2026-04-17 00:17 36.64022 -116.47477 25962 ft 474 kts 139°
2026-04-17 00:17 36.61702 -116.44468 24553 ft 490 kts 134°
2026-04-17 00:17 36.59419 -116.41235 23080 ft 503 kts 132°
2026-04-17 00:17 36.57120 -116.37924 21945 ft 507 kts 132°
2026-04-17 00:18 36.54841 -116.34649 21193 ft 502 kts 133°
2026-04-17 00:18 36.52567 -116.31400 20562 ft 493 kts 133°
2026-04-17 00:18 36.50327 -116.28224 19887 ft 487 kts 133°
2026-04-17 00:18 36.48098 -116.25082 19180 ft 482 kts 133°
2026-04-17 00:19 36.45904 -116.21999 18511 ft 477 kts 133°
2026-04-17 00:19 36.43726 -116.18942 17875 ft 471 kts 133°
2026-04-17 00:19 36.41571 -116.15916 17271 ft 465 kts 133°
2026-04-17 00:19 36.39437 -116.12920 16698 ft 458 kts 133°
2026-04-17 00:20 36.37335 -116.09974 16116 ft 452 kts 133°
2026-04-17 00:20 36.35294 -116.07110 15539 ft 446 kts 133°
2026-04-17 00:20 36.33258 -116.04259 14981 ft 439 kts 133°
2026-04-17 00:20 36.31237 -116.01432 14396 ft 434 kts 133°
2026-04-17 00:21 36.29239 -115.98642 13815 ft 428 kts 133°
2026-04-17 00:21 36.27265 -115.95886 13260 ft 431 kts 133°
2026-04-17 00:21 36.25294 -115.93127 13111 ft 428 kts 131°
2026-04-17 00:21 36.23447 -115.90296 12947 ft 415 kts 129°
2026-04-17 00:22 36.20033 -115.84853 12528 ft 387 kts 129°
2026-04-17 00:22 36.18405 -115.82258 12329 ft 375 kts 129°
2026-04-17 00:22 36.16823 -115.79748 12133 ft 363 kts 129°
2026-04-17 00:23 36.15300 -115.77338 11944 ft 351 kts 129°
2026-04-17 00:23 36.13969 -115.74875 11756 ft 342 kts 120°
2026-04-17 00:23 36.12967 -115.72261 11558 ft 332 kts 113°
2026-04-17 00:23 36.12141 -115.69619 11372 ft 323 kts 111°
2026-04-17 00:24 36.11374 -115.67070 11192 ft 313 kts 111°
2026-04-17 00:24 36.10622 -115.64569 10947 ft 307 kts 111°
2026-04-17 00:24 36.09877 -115.62117 10610 ft 305 kts 111°
2026-04-17 00:24 36.09129 -115.59673 10242 ft 304 kts 112°
2026-04-17 00:25 36.08381 -115.57238 9852 ft 303 kts 112°
2026-04-17 00:25 36.07641 -115.54836 9474 ft 302 kts 112°
2026-04-17 00:25 36.06889 -115.52397 9132 ft 300 kts 112°
2026-04-17 00:25 36.06153 -115.50017 8795 ft 298 kts 113°
2026-04-17 00:26 36.05416 -115.47630 8415 ft 296 kts 113°
2026-04-17 00:26 36.04686 -115.45277 8058 ft 294 kts 113°
2026-04-17 00:26 36.03960 -115.42937 7696 ft 293 kts 114°
2026-04-17 00:26 36.03233 -115.40595 7338 ft 291 kts 114°
2026-04-17 00:27 36.02515 -115.38285 6989 ft 290 kts 114°
2026-04-17 00:27 36.01874 -115.35927 6638 ft 290 kts 107°
2026-04-17 00:27 36.01501 -115.33464 6279 ft 291 kts 99°
2026-04-17 00:27 36.01333 -115.30975 5924 ft 291 kts 97°
2026-04-17 00:28 36.01206 -115.28503 5585 ft 289 kts 97°
2026-04-17 00:28 36.01083 -115.26028 5234 ft 288 kts 97°
2026-04-17 00:28 36.00953 -115.23573 5055 ft 287 kts 97°
2026-04-17 00:28 36.00817 -115.21120 4950 ft 289 kts 97°
2026-04-17 00:29 36.00679 -115.18655 4830 ft 290 kts 97°
2026-04-17 00:29 36.00542 -115.16251 4707 ft 283 kts 98°
2026-04-17 00:29 36.00409 -115.13896 4585 ft 273 kts 98°
2026-04-17 00:29 36.00280 -115.11582 4459 ft 264 kts 98°
2026-04-17 00:30 36.00151 -115.09355 4338 ft 260 kts 98°
2026-04-17 00:30 36.00019 -115.07127 4217 ft 260 kts 99°
2026-04-17 00:30 35.99934 -115.04878 4187 ft 263 kts 95°
2026-04-17 00:30 35.99913 -115.02634 4214 ft 265 kts 93°
2026-04-17 00:31 35.99908 -115.00370 4131 ft 263 kts 94°
2026-04-17 00:31 35.99898 -114.98112 4009 ft 261 kts 94°
2026-04-17 00:31 35.99889 -114.95873 3888 ft 263 kts 94°
2026-04-17 00:31 35.99898 -114.93614 3764 ft 264 kts 88°
2026-04-17 00:32 36.00470 -114.91497 3625 ft 268 kts 51°
2026-04-17 00:32 36.01900 -114.90062 3519 ft 265 kts 24°
2026-04-17 00:32 36.03612 -114.89298 3383 ft 258 kts 359°
2026-04-17 00:32 36.05318 -114.89651 3263 ft 245 kts 325°
2026-04-17 00:33 36.06498 -114.91018 3146 ft 231 kts 293°
2026-04-17 00:33 36.07107 -114.92821 3035 ft 222 kts 278°
2026-04-17 00:33 36.07330 -114.94629 3022 ft 204 kts 270°
2026-04-17 00:33 36.07393 -114.96341 3017 ft 195 kts 267°
2026-04-17 00:34 36.07401 -114.97998 3022 ft 195 kts 266°
2026-04-17 00:34 36.07393 -114.99671 3027 ft 195 kts 265°
2026-04-17 00:34 36.07386 -115.01354 3028 ft 194 kts 265°
2026-04-17 00:34 36.07383 -115.03030 3027 ft 193 kts 265°
2026-04-17 00:35 36.07382 -115.04604 3164 ft 175 kts 265°
2026-04-17 00:35 36.07381 -115.06035 3059 ft 154 kts 265°
2026-04-17 00:35 36.07381 -115.07284 2869 ft 138 kts 264°
2026-04-17 00:35 36.07376 -115.08466 2696 ft 137 kts 264°
2026-04-17 00:36 36.07373 -115.09645 2538 ft 137 kts 264°
2026-04-17 00:36 36.07365 -115.10805 2363 ft 136 kts 263°
2026-04-17 00:36 36.07361 -115.11996 2191 ft 138 kts 264°
2026-04-17 00:36 36.07370 -115.13174 2077 ft 132 kts 266°
2026-04-17 00:37 36.07360 -115.14193 2106 ft 98 kts 269°
2026-04-17 00:37 36.07363 -115.14819 2126 ft 49 kts 271°
2026-04-17 00:37 36.07364 -115.15107 2137 ft 27 kts 272°
2026-04-17 00:37 36.07392 -115.15320 2145 ft 23 kts 288°
2026-04-17 00:38 36.07459 -115.15488 2150 ft 20 kts 299°
2026-04-17 00:38 36.07528 -115.15610 2153 ft 11 kts 313°
2026-04-17 00:38 36.07537 -115.15622 2153 ft 0 kts 314°
2026-04-17 00:40 36.07546 -115.15633 2153 ft 4 kts 315°
2026-04-17 00:40 36.07584 -115.15679 2154 ft 10 kts 315°
2026-04-17 00:40 36.07645 -115.15758 2156 ft 14 kts 313°
2026-04-17 00:41 36.07727 -115.15821 2157 ft 14 kts 348°
2026-04-17 00:41 36.07836 -115.15825 2155 ft 16 kts 360°
2026-04-17 00:41 36.07966 -115.15826 2150 ft 19 kts 360°
2026-04-17 00:41 36.08110 -115.15826 2147 ft 21 kts
2026-04-17 00:42 36.08262 -115.15827 2144 ft 22 kts
2026-04-17 00:42 36.08378 -115.15765 2139 ft 20 kts 49°
2026-04-17 00:42 36.08477 -115.15658 2133 ft 19 kts 29°
2026-04-17 00:42 36.08604 -115.15577 2128 ft 22 kts 26°
2026-04-17 00:43 36.08689 -115.15476 2122 ft 13 kts 77°
2026-04-17 00:43 36.08688 -115.15395 2119 ft 6 kts 125°
2026-04-17 00:43 36.08677 -115.15373 2118 ft 0 kts 116°